Location: *
(57.8420°S, 159.8600°W)
Time: 02:56:56
(UTC+00:00)

Cosmos 1092 Rocket - Pass Details

Date: 18 May 2021
Orbit: 954 x 995 km, 83.0° (Epoch: 23 June)

Event Time Altitude Azimuth Distance (km) Brightness Sun altitude
Rises 04:01:23 0° 1° (N) 3,664 7.2 -12.0°
Reaches altitude 10° 04:03:53 10° 3° (N) 2,730 6.5 -12.4°
Maximum altitude 04:10:05 68° 84° (E) 1,068 4.0 -13.2°
Drops below altitude 10° 04:16:26 10° 165° (SSE) 2,787 6.1 -14.0°
Sets 04:19:00 0° 167° (SSE) 3,746 6.8 -14.3°
